N605VV KGEG-KHVR

Flight info

Callsign N605VV
Flight time 1h 0m
Altitude 35000
Route GEG J136 MLP Q142 KEETA HVR
Aircraft CL60/M-SBDE1E2E3FGHIJ1J4J5J7M3RWXYZ/LB1V1D1

Departure

Time 2026-05-04 15:53
Airport Spokane International Airport (KGEG)

Arrival

Time 2026-05-04 16:54
Airport Havre City County Airport (KHVR)
Time Latitude Longitude Altitude Speed Heading
2026-05-04 15:11 47.61885 -117.52705 2368 ft 0 kts 176°
2026-05-04 15:48 47.61847 -117.52711 2369 ft 6 kts 231°
2026-05-04 15:49 47.61839 -117.52777 2369 ft 8 kts 269°
2026-05-04 15:49 47.61839 -117.52876 2369 ft 11 kts 269°
2026-05-04 15:49 47.61794 -117.52970 2370 ft 12 kts 253°
2026-05-04 15:49 47.61793 -117.53113 2370 ft 15 kts 270°
2026-05-04 15:50 47.61795 -117.53284 2370 ft 17 kts 271°
2026-05-04 15:50 47.61800 -117.53480 2370 ft 20 kts 272°
2026-05-04 15:50 47.61812 -117.53696 2370 ft 22 kts 272°
2026-05-04 15:50 47.61815 -117.53935 2371 ft 23 kts 268°
2026-05-04 15:51 47.61815 -117.54188 2372 ft 25 kts 270°
2026-05-04 15:51 47.61816 -117.54451 2373 ft 25 kts 270°
2026-05-04 15:51 47.61818 -117.54722 2375 ft 26 kts 271°
2026-05-04 15:51 47.61820 -117.54984 2377 ft 23 kts 270°
2026-05-04 15:52 47.61823 -117.55193 2379 ft 13 kts 272°
2026-05-04 15:52 47.61796 -117.55301 2379 ft 12 kts 204°
2026-05-04 15:52 47.61706 -117.55295 2379 ft 13 kts 133°
2026-05-04 15:52 47.61693 -117.55092 2378 ft 42 kts 90°
2026-05-04 15:53 47.61691 -117.54178 2373 ft 131 kts 90°
2026-05-04 15:53 47.61669 -117.52591 2722 ft 169 kts 93°
2026-05-04 15:53 47.61404 -117.50840 3440 ft 191 kts 116°
2026-05-04 15:53 47.60491 -117.49192 4162 ft 220 kts 133°
2026-05-04 15:54 47.59310 -117.47478 4758 ft 254 kts 133°
2026-05-04 15:54 47.58002 -117.45587 5663 ft 273 kts 133°
2026-05-04 15:54 47.56623 -117.43597 6709 ft 285 kts 133°
2026-05-04 15:54 47.55380 -117.41339 7814 ft 289 kts 114°
2026-05-04 15:55 47.54887 -117.38464 8972 ft 289 kts 91°
2026-05-04 15:55 47.54769 -117.35508 10034 ft 296 kts 90°
2026-05-04 15:55 47.54644 -117.32365 10831 ft 315 kts 91°
2026-05-04 15:55 47.54509 -117.29038 11555 ft 333 kts 91°
2026-05-04 15:56 47.54366 -117.25611 12474 ft 342 kts 91°
2026-05-04 15:56 47.54216 -117.22091 13398 ft 349 kts 90°
2026-05-04 15:56 47.54062 -117.18483 14346 ft 354 kts 90°
2026-05-04 15:56 47.53906 -117.14876 15280 ft 358 kts 90°
2026-05-04 15:57 47.53744 -117.11170 16172 ft 362 kts 90°
2026-05-04 15:57 47.53581 -117.07449 17022 ft 366 kts 90°
2026-05-04 15:57 47.53414 -117.03686 17875 ft 370 kts 89°
2026-05-04 15:57 47.53246 -116.99921 18687 ft 374 kts 89°
2026-05-04 15:58 47.53072 -116.96049 19435 ft 379 kts 89°
2026-05-04 15:58 47.52896 -116.92174 20197 ft 382 kts 89°
2026-05-04 15:58 47.52715 -116.88195 20917 ft 387 kts 88°
2026-05-04 15:58 47.52535 -116.84268 21618 ft 390 kts 88°
2026-05-04 15:59 47.52348 -116.80238 22323 ft 394 kts 88°
2026-05-04 15:59 47.52158 -116.76196 23005 ft 397 kts 88°
2026-05-04 15:59 47.51966 -116.72095 23631 ft 402 kts 88°
2026-05-04 15:59 47.51763 -116.67910 24318 ft 406 kts 88°
2026-05-04 16:00 47.51540 -116.63773 24944 ft 410 kts 89°
2026-05-04 16:00 47.51308 -116.59557 25550 ft 413 kts 88°
2026-05-04 16:00 47.51076 -116.55343 26127 ft 417 kts 88°
2026-05-04 16:00 47.50838 -116.51051 26654 ft 421 kts 88°
2026-05-04 16:01 47.50597 -116.46752 27229 ft 423 kts 88°
2026-05-04 16:01 47.50353 -116.42406 27720 ft 426 kts 88°
2026-05-04 16:01 47.50103 -116.37990 28196 ft 430 kts 88°
2026-05-04 16:01 47.49852 -116.33603 28659 ft 433 kts 89°
2026-05-04 16:02 47.49595 -116.29118 29104 ft 436 kts 89°
2026-05-04 16:02 47.49335 -116.24630 29556 ft 439 kts 89°
2026-05-04 16:02 47.48809 -116.15616 30344 ft 445 kts 89°
2026-05-04 16:03 47.48539 -116.11053 30728 ft 448 kts 89°
2026-05-04 16:03 47.48264 -116.06436 31117 ft 450 kts 89°
2026-05-04 16:03 47.47990 -116.01859 31488 ft 452 kts 89°
2026-05-04 16:03 47.47726 -115.97477 31822 ft 453 kts 89°
2026-05-04 16:04 47.47443 -115.92815 32178 ft 454 kts 89°
2026-05-04 16:04 47.46885 -115.83719 32772 ft 457 kts 89°
2026-05-04 16:04 47.46594 -115.79014 33113 ft 457 kts 89°
2026-05-04 16:05 47.46302 -115.74339 33512 ft 456 kts 88°
2026-05-04 16:05 47.46012 -115.69727 33919 ft 454 kts 88°
2026-05-04 16:05 47.45555 -115.60668 34720 ft 446 kts 85°
2026-05-04 16:06 47.45427 -115.56116 34946 ft 448 kts 85°
2026-05-04 16:06 47.45064 -115.43675 34978 ft 463 kts 85°
2026-05-04 16:07 47.44870 -115.37279 34985 ft 468 kts 85°
2026-05-04 16:08 47.44256 -115.17978 34980 ft 473 kts 86°
2026-05-04 16:09 47.43437 -114.93755 34988 ft 474 kts 86°
2026-05-04 16:10 47.42742 -114.74314 34987 ft 475 kts 86°
2026-05-04 16:11 47.42016 -114.54872 34994 ft 476 kts 86°
2026-05-04 16:12 47.40860 -114.25635 34996 ft 477 kts 86°
2026-05-04 16:13 47.40047 -114.06136 35016 ft 478 kts 86°
2026-05-04 16:14 47.39205 -113.86719 35018 ft 478 kts 86°
2026-05-04 16:16 47.38096 -113.62209 35010 ft 481 kts 86°
2026-05-04 16:17 47.36955 -113.38110 35027 ft 482 kts 86°
2026-05-04 16:18 47.35978 -113.18324 35008 ft 484 kts 87°
2026-05-04 16:19 47.35201 -112.93644 35024 ft 473 kts 76°
2026-05-04 16:20 47.37843 -112.80023 35012 ft 455 kts 57°
2026-05-04 16:20 47.40951 -112.72007 35001 ft 450 kts 51°
2026-05-04 16:22 47.48971 -112.52132 35053 ft 452 kts 52°
2026-05-04 16:23 47.58580 -112.28117 35058 ft 453 kts 52°
2026-05-04 16:25 47.68171 -112.03929 35067 ft 455 kts 52°
2026-05-04 16:26 47.79327 -111.75519 35060 ft 457 kts 52°
2026-05-04 16:28 47.87212 -111.55254 35026 ft 458 kts 51°
2026-05-04 16:28 47.91909 -111.43093 33380 ft 443 kts 51°
2026-05-04 16:29 47.97848 -111.27657 31207 ft 435 kts 52°
2026-05-04 16:30 48.02278 -111.16078 29513 ft 424 kts 52°
2026-05-04 16:31 48.05161 -111.08516 28387 ft 418 kts 52°
2026-05-04 16:31 48.09438 -110.97263 26734 ft 410 kts 52°
2026-05-04 16:32 48.13623 -110.86212 25104 ft 405 kts 52°
2026-05-04 16:33 48.16380 -110.78902 24042 ft 400 kts 51°
2026-05-04 16:33 48.19086 -110.71710 22982 ft 397 kts 51°
2026-05-04 16:34 48.21736 -110.64645 21954 ft 391 kts 52°
2026-05-04 16:34 48.23059 -110.61111 21438 ft 388 kts 52°
2026-05-04 16:35 48.26972 -110.50634 19891 ft 381 kts 52°
2026-05-04 16:35 48.30728 -110.40533 18423 ft 372 kts 52°
2026-05-04 16:36 48.31971 -110.37180 17937 ft 369 kts 52°
2026-05-04 16:36 48.34461 -110.30460 16908 ft 367 kts 52°
2026-05-04 16:37 48.36861 -110.23960 15980 ft 360 kts 52°
2026-05-04 16:37 48.38073 -110.20676 15498 ft 358 kts 52°
2026-05-04 16:37 48.40441 -110.14233 14562 ft 348 kts 52°
2026-05-04 16:38 48.42731 -110.07989 13664 ft 337 kts 52°
2026-05-04 16:39 48.46069 -109.98871 12346 ft 324 kts 53°
2026-05-04 16:39 48.48196 -109.93043 11505 ft 315 kts 54°
2026-05-04 16:40 48.50272 -109.87344 10684 ft 305 kts 54°
2026-05-04 16:40 48.52229 -109.81951 9933 ft 283 kts 55°
2026-05-04 16:41 48.53934 -109.76733 9201 ft 281 kts 70°
2026-05-04 16:41 48.54160 -109.67884 8041 ft 274 kts 84°
2026-05-04 16:42 48.54240 -109.59493 6979 ft 262 kts 83°
2026-05-04 16:43 48.54290 -109.54092 6290 ft 254 kts 84°
2026-05-04 16:43 48.54335 -109.48867 5669 ft 240 kts 84°
2026-05-04 16:43 48.54361 -109.46533 5472 ft 224 kts 81°
2026-05-04 16:44 48.57480 -109.39093 5453 ft 210 kts 46°
2026-05-04 16:45 48.59213 -109.35579 5455 ft 210 kts 46°
2026-05-04 16:46 48.59200 -109.29349 5458 ft 240 kts 138°
2026-05-04 16:46 48.56127 -109.28783 5458 ft 227 kts 214°
2026-05-04 16:47 48.54719 -109.32317 5469 ft 196 kts 272°
2026-05-04 16:47 48.54622 -109.36079 5454 ft 171 kts 275°
2026-05-04 16:48 48.54496 -109.41444 5456 ft 170 kts 274°
2026-05-04 16:48 48.54454 -109.43221 5460 ft 170 kts 275°
2026-05-04 16:49 48.54371 -109.46811 5459 ft 170 kts 275°
2026-05-04 16:49 48.54364 -109.50359 5463 ft 170 kts 277°
2026-05-04 16:50 48.54375 -109.53954 5249 ft 174 kts 276°
2026-05-04 16:50 48.54375 -109.57327 4839 ft 142 kts 276°
2026-05-04 16:51 48.54380 -109.60264 4490 ft 138 kts 276°
2026-05-04 16:51 48.54382 -109.61715 4315 ft 138 kts 276°
2026-05-04 16:51 48.54389 -109.64610 3959 ft 138 kts 275°
2026-05-04 16:52 48.54415 -109.67469 3574 ft 137 kts 275°
2026-05-04 16:52 48.54425 -109.68912 3401 ft 138 kts 273°
2026-05-04 16:53 48.54397 -109.71798 3055 ft 138 kts 274°
2026-05-04 16:53 48.54407 -109.76101 2586 ft 118 kts 272°
2026-05-04 16:54 48.54407 -109.76764 2577 ft 31 kts 271°
2026-05-04 16:55 48.54436 -109.77268 2572 ft 10 kts 353°
2026-05-04 16:55 48.54565 -109.77126 2572 ft 15 kts 91°
2026-05-04 16:56 48.54565 -109.76779 2577 ft 17 kts 89°
2026-05-04 16:56 48.54541 -109.76385 2582 ft 5 kts 139°
2026-05-04 16:57 48.54536 -109.76343 2583 ft 2 kts
2026-05-04 16:57 48.54538 -109.76343 2583 ft 0 kts 358°